EN

Hourly Weather Kulan

Today, 25 November, Wednesday

Time Temperature Precipitation Wind Pressure Humidity
00:00 -3°C° 0 mm 1 mps 691 mmHg 46%
01:00 -3°C° 0 mm 1 mps 691 mmHg 46%
02:00 -3°C° 0 mm 1 mps 691 mmHg 46%
03:00 -3°C° 0 mm 1 mps 691 mmHg 46%
04:00 -3°C° 0 mm 1 mps 691 mmHg 45%
05:00 -3°C° 0 mm 1 mps 691 mmHg 47%
06:00 -3°C° 0 mm 1 mps 692 mmHg 48%
07:00 -3°C° 0 mm 1 mps 692 mmHg 49%
08:00 -2°C° 0 mm 1 mps 692 mmHg 49%
09:00 -1°C° 0 mm 1 mps 692 mmHg 55%
10:00 0°C° 0 mm 1 mps 693 mmHg 60%
11:00 +1°C° 0 mm 1 mps 693 mmHg 65%
12:00 0°C° 0 mm 0 mps 693 mmHg 67%
13:00 +1°C° 0 mm 0 mps 693 mmHg 69%
14:00 +1°C° 0 mm 0 mps 693 mmHg 71%
15:00 +1°C° 0 mm 1 mps 693 mmHg 70%
16:00 0°C° 0 mm 1 mps 693 mmHg 69%
17:00 -1°C° 0 mm 1 mps 693 mmHg 68%
18:00 -1°C° 0.1 mm 1 mps 693 mmHg 75%
19:00 -1°C° 0.1 mm 1 mps 693 mmHg 82%
20:00 -1°C° 0.1 mm 1 mps 693 mmHg 89%
21:00 -1°C° 0 mm 1 mps 693 mmHg 88%
22:00 -1°C° 0 mm 1 mps 693 mmHg 87%
23:00 -3°C° 0 mm 0 mps 693 mmHg 86%

Tomorrow, 26 November, Thursday

Time Temperature Precipitation Wind Pressure Humidity
00:00 -2°C° 0 mm 1 mps 693 mmHg 84%
01:00 -2°C° 0 mm 1 mps 693 mmHg 82%
02:00 -3°C° 0 mm 1 mps 693 mmHg 80%
03:00 -3°C° 0 mm 1 mps 693 mmHg 77%
04:00 -3°C° 0 mm 1 mps 693 mmHg 74%
05:00 -3°C° 0 mm 1 mps 693 mmHg 71%
06:00 -5°C° 0 mm 2 mps 694 mmHg 68%
07:00 -5°C° 0 mm 2 mps 694 mmHg 65%
08:00 -5°C° 0 mm 2 mps 694 mmHg 62%
09:00 -3°C° 0 mm 2 mps 694 mmHg 64%
10:00 +1°C° 0 mm 1 mps 694 mmHg 67%
11:00 +2°C° 0 mm 1 mps 694 mmHg 69%
12:00 +3°C° 0 mm 1 mps 694 mmHg 70%
13:00 +3°C° 0 mm 1 mps 694 mmHg 70%
14:00 +4°C° 0 mm 1 mps 693 mmHg 71%
15:00 +3°C° 0 mm 1 mps 693 mmHg 67%
16:00 +2°C° 0 mm 2 mps 693 mmHg 64%
17:00 +1°C° 0 mm 2 mps 693 mmHg 60%
18:00 +1°C° 0 mm 2 mps 693 mmHg 59%
19:00 +2°C° 0 mm 1 mps 693 mmHg 59%
20:00 +2°C° 0 mm 1 mps 693 mmHg 58%
21:00 +3°C° 0 mm 1 mps 693 mmHg 56%
22:00 +2°C° 0 mm 2 mps 692 mmHg 55%
23:00 +2°C° 0 mm 2 mps 692 mmHg 53%

Day after tomorrow, 27 November, Friday

Time Temperature Precipitation Wind Pressure Humidity
00:00 +3°C° 0 mm 2 mps 692 mmHg 55%
01:00 +3°C° 0 mm 2 mps 692 mmHg 56%
02:00 +4°C° 0 mm 2 mps 692 mmHg 57%
03:00 +3°C° 0 mm 2 mps 692 mmHg 56%
04:00 +3°C° 0 mm 2 mps 691 mmHg 55%
05:00 +3°C° 0 mm 2 mps 691 mmHg 54%
06:00 +4°C° 0 mm 2 mps 691 mmHg 55%
07:00 +4°C° 0 mm 2 mps 691 mmHg 56%
08:00 +5°C° 0 mm 2 mps 691 mmHg 57%
09:00 +5°C° 0 mm 2 mps 691 mmHg 64%
10:00 +5°C° 0 mm 2 mps 691 mmHg 71%
11:00 +6°C° 0 mm 2 mps 690 mmHg 78%
12:00 +6°C° 0 mm 2 mps 690 mmHg 78%
13:00 +6°C° 0 mm 2 mps 690 mmHg 79%
14:00 +6°C° 0 mm 2 mps 690 mmHg 79%
15:00 +6°C° 0 mm 2 mps 690 mmHg 73%
16:00 +7°C° 0 mm 1 mps 690 mmHg 67%
17:00 +7°C° 0 mm 1 mps 690 mmHg 61%
18:00 +6°C° 0 mm 2 mps 690 mmHg 63%
19:00 +4°C° 0 mm 3 mps 690 mmHg 65%
20:00 +4°C° 0 mm 4 mps 690 mmHg 68%
21:00 +4°C° 0.2 mm 4 mps 690 mmHg 70%
22:00 +4°C° 0.2 mm 4 mps 690 mmHg 72%
23:00 +3°C° 0.2 mm 5 mps 690 mmHg 74%

28 November, Saturday

Time Temperature Precipitation Wind Pressure Humidity
00:00 +4°C° 0.1 mm 4 mps 691 mmHg 73%
01:00 +3°C° 0.1 mm 4 mps 691 mmHg 72%
02:00 +1°C° 0.1 mm 4 mps 691 mmHg 71%
03:00 +1°C° 0.5 mm 5 mps 691 mmHg 79%
04:00 0°C° 0.5 mm 5 mps 692 mmHg 86%
05:00 -2°C° 0.5 mm 6 mps 692 mmHg 93%
06:00 -4°C° 3 mm 8 mps 693 mmHg 94%
07:00 -4°C° 3 mm 10 mps 695 mmHg 96%
08:00 -4°C° 3 mm 11 mps 696 mmHg 97%
09:00 -6°C° 1.9 mm 11 mps 697 mmHg 96%
10:00 -6°C° 1.9 mm 11 mps 698 mmHg 96%
11:00 -6°C° 1.9 mm 11 mps 699 mmHg 95%
12:00 -6°C° 0.4 mm 11 mps 699 mmHg 94%
13:00 -6°C° 0.4 mm 11 mps 700 mmHg 93%
14:00 -6°C° 0.4 mm 11 mps 700 mmHg 92%
15:00 -6°C° 0.1 mm 9 mps 701 mmHg 92%
16:00 -7°C° 0.1 mm 8 mps 701 mmHg 93%
17:00 -6°C° 0.1 mm 6 mps 702 mmHg 94%
18:00 -6°C° 0 mm 5 mps 702 mmHg 91%
19:00 -7°C° 0 mm 4 mps 702 mmHg 89%
20:00 -7°C° 0 mm 4 mps 703 mmHg 87%
21:00 -6°C° 0 mm 3 mps 703 mmHg 85%
22:00 -6°C° 0 mm 2 mps 703 mmHg 83%
23:00 -4°C° 0 mm 1 mps 703 mmHg 81%

29 November, Sunday

Time Temperature Precipitation Wind Pressure Humidity
00:00 -6°C° 0 mm 1 mps 703 mmHg 77%
01:00 -7°C° 0 mm 1 mps 702 mmHg 74%
02:00 -8°C° 0 mm 1 mps 702 mmHg 70%
03:00 -9°C° 0 mm 2 mps 702 mmHg 65%
04:00 -9°C° 0 mm 2 mps 702 mmHg 60%
05:00 -9°C° 0 mm 2 mps 702 mmHg 55%
06:00 -9°C° 0 mm 2 mps 702 mmHg 56%
07:00 -9°C° 0 mm 2 mps 701 mmHg 57%
08:00 -9°C° 0 mm 2 mps 701 mmHg 58%
09:00 -8°C° 0 mm 3 mps 701 mmHg 65%
10:00 -7°C° 0 mm 3 mps 701 mmHg 72%
11:00 -6°C° 0 mm 3 mps 701 mmHg 79%
12:00 -5°C° 0 mm 3 mps 701 mmHg 81%
13:00 -5°C° 0 mm 3 mps 701 mmHg 83%
14:00 -5°C° 0 mm 3 mps 700 mmHg 85%
15:00 -6°C° 0 mm 3 mps 700 mmHg 84%
16:00 -7°C° 0 mm 3 mps 700 mmHg 82%
17:00 -9°C° 0 mm 4 mps 699 mmHg 80%
18:00 -9°C° 0 mm 4 mps 699 mmHg 79%
19:00 -9°C° 0 mm 4 mps 699 mmHg 78%
20:00 -9°C° 0 mm 4 mps 699 mmHg 76%
21:00 -9°C° 0 mm 4 mps 699 mmHg 77%
22:00 -9°C° 0 mm 4 mps 699 mmHg 77%
23:00 -9°C° 0 mm 4 mps 698 mmHg 77%

30 November, Monday

Time Temperature Precipitation Wind Pressure Humidity
00:00 -9°C° 0 mm 4 mps 698 mmHg 77%
01:00 -9°C° 0 mm 4 mps 698 mmHg 77%
02:00 -9°C° 0 mm 4 mps 698 mmHg 77%
03:00 -9°C° 0 mm 4 mps 698 mmHg 77%
04:00 -9°C° 0 mm 4 mps 697 mmHg 77%
05:00 -9°C° 0 mm 4 mps 697 mmHg 76%
06:00 -10°C° 0 mm 5 mps 697 mmHg 74%
07:00 -10°C° 0 mm 5 mps 697 mmHg 72%
08:00 -10°C° 0 mm 5 mps 697 mmHg 70%
09:00 -8°C° 0 mm 5 mps 697 mmHg 70%
10:00 -7°C° 0 mm 5 mps 697 mmHg 70%
11:00 -5°C° 0 mm 5 mps 697 mmHg 71%
12:00 -5°C° 0 mm 5 mps 696 mmHg 71%
13:00 -5°C° 0 mm 5 mps 695 mmHg 71%
14:00 -5°C° 0 mm 5 mps 695 mmHg 72%
15:00 -6°C° 0 mm 5 mps 695 mmHg 71%
16:00 -7°C° 0 mm 5 mps 694 mmHg 71%
17:00 -8°C° 0 mm 5 mps 694 mmHg 71%
18:00 -8°C° 0 mm 5 mps 694 mmHg 70%
19:00 -8°C° 0 mm 5 mps 693 mmHg 69%
20:00 -10°C° 0 mm 5 mps 693 mmHg 67%
21:00 -8°C° 0 mm 5 mps 693 mmHg 65%
22:00 -8°C° 0 mm 5 mps 693 mmHg 62%
23:00 -8°C° 0 mm 4 mps 692 mmHg 60%
Show more

We Need Your Consent

Meteoprog and our Service Providers may store and access personal data such as cookies, device identifiers or other similar technologies on your device and process such data to personalise content and ads, as well as provide social media features and to analyse the traffic.

  • Store and/or access information on your device

    Cookies, device identifiers or other information can be stored or accessed on your device for the purposes indicated above.

  • Personalised ads and content, ad and content measurement, audience insights, and products development

    Ads and content can be personalised based on a profile. More data can be added to better personalise ads and content. Ad and content performance can be measured. Insights about the audience who saw the ads and content can be derived. Such data can be used to develop or improve user’s experience, systems and software.

By clicking ‘I Agree’ you will allow the use of indicated cookies, device identifiers, web beacons or other similar technologies. Your settings can be changed in the browser on your device.

For certain purposes, legitimate interests may be relied on, rather than consent. You can read more about this in our Privacy and Cookie Policy.